Location: Star Dogged Moon Observatory
(29.7756°N, 82.0783°W)
Time: 00:05:56
(UTC-05:00)

Amateur Radio Satellites - All Passes

Search period start: 22 February 2017 23:35
Search period end: 23 February 2017 23:35
Location: Star Dogged Moon Observatory, 29.7756°N, 82.0783°W

Satellite Date Start Highest point End Downlink Frequencies (MHz)
Time Altitude Azimuth
SO-50 22 Feb 23:40:58 23:44:55 26° 304° (WNW) 23:48:50 436.795
ESTCUBE 1 22 Feb 23:41:48 23:46:08 47° 260° (W) 23:50:30 437.505/2401.250
JUGNU 22 Feb 23:52:45 23:57:53 31° 178° (S) 00:03:02 437.505
50 SAT 22 Feb 23:56:28 23:59:49 45° 76° (ENE) 00:03:11 437.505
DUCHIFAT 1 23 Feb 00:06:06 00:10:19 63° 100° (E) 00:14:32 145.980
EO-79 23 Feb 00:13:24 00:17:42 84° 281° (W) 00:21:58 145.935-145.965
VELOX 1 23 Feb 00:19:49 00:24:06 55° 259° (W) 00:28:24 145.980
DX 1 23 Feb 00:20:59 00:25:13 59° 75° (ENE) 00:29:29 434.975-435.025
POLYITAN 1 23 Feb 00:30:07 00:34:17 50° 285° (WNW) 00:38:25 437.675
NANOSAT C BR1 23 Feb 00:32:23 00:36:32 51° 285° (WNW) 00:40:40 145.865
AIST 2D 23 Feb 00:32:46 00:35:19 19° 287° (WNW) 00:37:52 435.315
QB50P2 23 Feb 00:33:03 00:37:06 42° 285° (WNW) 00:41:08 145.880/145.840
RS-15 23 Feb 00:34:02 00:38:07 12° 25° (NNE) 00:42:09 29.354- 29.394
O/OREOS (USA 219) 23 Feb 00:34:16 00:36:24 13° 298° (WNW) 00:38:33 437.305
UKube-1 23 Feb 00:38:53 00:43:08 68° 77° (ENE) 00:47:25 .
SRMSAT 23 Feb 00:46:40 00:51:25 24° 169° (SSE) 00:56:10 437.500
FO-29 23 Feb 00:47:32 00:52:30 19° 298° (WNW) 00:57:13 435.910
SPROUT 23 Feb 00:50:11 00:53:52 29° 262° (W) 00:57:34 437.525
BUGSAT 1 23 Feb 01:14:58 01:19:07 55° 285° (WNW) 01:23:16 437.445
BEESAT 23 Feb 01:21:52 01:23:15 11° 66° (ENE) 01:24:38 436.000
Oscar 19 23 Feb 01:37:27 01:42:28 55° 101° (E) 01:47:27 437.125/150
JUGNU 23 Feb 01:41:30 01:46:27 28° 188° (S) 01:51:26 437.505
Gurwin Techsat 1B 23 Feb 01:59:44 02:04:52 48° 100° (E) 02:09:59 435.225
MOZHAYETS 4 23 Feb 02:07:47 02:08:59 11° 67° (ENE) 02:10:12
PCSat 23 Feb 02:18:38 02:23:46 42° 62° (ENE) 02:28:52 145.827
SRMSAT 23 Feb 02:34:53 02:40:09 32° 178° (S) 02:45:25 437.500
RS-15 23 Feb 02:43:27 02:55:03 45° 54° (NE) 03:06:05 29.354- 29.394
ITUPSAT 1 23 Feb 02:47:09 02:51:56 75° 258° (WSW) 02:56:45 437.325
BEESAT 23 Feb 02:55:46 03:00:27 58° 259° (W) 03:05:11 436.000
Oscar 19 23 Feb 03:18:52 03:21:15 13° 294° (WNW) 03:23:39 437.125/150
JUGNU 23 Feb 03:31:20 03:34:57 16° 197° (SSW) 03:38:34 437.505
STARS 23 Feb 03:40:10 03:41:48 12° 68° (ENE) 03:43:27 437.465
MOZHAYETS 4 23 Feb 03:41:04 03:45:36 55° 260° (W) 03:50:10
Gurwin Techsat 1B 23 Feb 03:41:10 03:44:21 16° 293° (WNW) 03:47:33 435.225
ITAMSAT 1 23 Feb 03:44:05 03:49:21 89° 101° (ESE) 03:54:34 435.822/435.867
AO-85 23 Feb 03:44:17 03:47:18 17° 110° (ESE) 03:50:11 145.980
AO-7 23 Feb 03:56:18 04:04:35 70° 105° (ESE) 04:12:49 .
PCSat 23 Feb 04:03:02 04:06:46 19° 255° (WSW) 04:10:28 145.827
SRMSAT 23 Feb 04:23:53 04:28:53 27° 189° (S) 04:33:53 437.500
KKS-1 23 Feb 04:31:48 04:36:08 59° 259° (W) 04:40:30 437.445
CUBESAT XI-V 23 Feb 04:32:59 04:37:39 75° 76° (ENE) 04:42:19 437.345
RS-15 23 Feb 04:56:09 05:07:24 46° 253° (WSW) 05:18:08 29.354- 29.394
M-CUBED/EXP-1 PRIME 23 Feb 04:59:56 05:03:20 77° 254° (WSW) 05:06:36 437.505
STARS 23 Feb 05:13:33 05:17:42 44° 260° (W) 05:21:53 437.465
AO-85 23 Feb 05:23:08 05:27:28 36° 300° (WNW) 05:31:31 145.980
AO-7 23 Feb 05:50:44 05:56:33 22° 300° (WNW) 06:02:21 .
CUTE-I 23 Feb 06:12:36 06:17:33 37° 99° (E) 06:22:29 437.470
SRMSAT 23 Feb 06:14:05 06:17:32 16° 197° (SSW) 06:20:59 437.500
KAITUO 1B 23 Feb 06:23:00 06:26:36 42° 99° (E) 06:30:09 145.475/437.950
XW-2F 23 Feb 06:23:15 06:26:59 54° 100° (E) 06:30:41 145.980 - 146.000
DOVE 4 23 Feb 06:25:43 06:30:27 70° 101° (E) 06:35:28 437.250
XW-2D 23 Feb 06:26:14 06:30:02 65° 101° (E) 06:33:46 145.860 - 145.880
BEESAT 3 23 Feb 06:28:34 06:32:19 52° 114° (ESE) 06:36:08 437.485
XW-2B 23 Feb 06:31:12 06:35:01 74° 101° (E) 06:38:46 145.730 - 145.750
XW-2C 23 Feb 06:39:43 06:43:32 81° 284° (WNW) 06:47:20 145.795 - 145.815
LilacSat-2 23 Feb 06:53:53 06:57:35 47° 284° (WNW) 07:01:14 437.200
BEESAT 2 23 Feb 07:01:04 07:04:49 47° 113° (ESE) 07:08:38 435.950
NUDT-PHONESAT 23 Feb 07:01:06 07:04:44 48° 284° (WNW) 07:08:20 437.300
STRAND 1 23 Feb 07:09:27 07:14:34 83° 76° (ENE) 07:19:44 437.568
HO-68 23 Feb 07:17:14 07:23:30 32° 99° (E) 07:29:43 435.675
XW-2A 23 Feb 07:21:24 07:24:40 39° 99° (E) 07:27:54 145.665 - 145.685
SEEDS 23 Feb 07:30:02 07:33:05 20° 96° (E) 07:36:08 437.485
CUTE-I 23 Feb 07:53:20 07:57:17 21° 292° (WNW) 08:01:13 437.470
CUBEBUG 2 23 Feb 07:54:37 07:58:44 29° 97° (E) 08:02:48 437.445
CUTE 1.7 + AOD 2 23 Feb 08:02:29 08:06:42 89° 103° (ESE) 08:10:53 437.475
ISS 23 Feb 08:04:18 08:07:32 61° 132° (SE) 08:10:47 437.550
SO-50 23 Feb 08:17:09 08:21:33 52° 61° (ENE) 08:25:54 436.795
AO-73 23 Feb 08:19:11 08:21:56 16° 94° (E) 08:24:38 145.935
Oscar 11 23 Feb 08:28:56 08:31:45 17° 95° (E) 08:34:34 .
PRISM 23 Feb 08:31:04 08:34:05 20° 71° (ENE) 08:37:06 437.425
Tancredo 1 23 Feb 08:36:05 08:39:13 46° 316° (NW) 08:42:23 437.200
UWE-3 23 Feb 08:37:02 08:41:36 55° 100° (E) 08:46:05 435.000/436.395/437.385
BEESAT 2 23 Feb 08:41:41 08:42:50 11° 308° (NW) 08:43:58 435.950
AAUSAT CUBESAT 2 23 Feb 09:01:26 09:05:27 55° 284° (WNW) 09:09:26 437.432
ZACube-1 23 Feb 09:03:48 09:08:19 64° 100° (E) 09:12:44 437.345
HO-68 23 Feb 09:04:41 09:11:06 37° 292° (WNW) 09:17:31 435.675
SEEDS 23 Feb 09:05:22 09:08:39 23° 288° (WNW) 09:11:54 437.485
FO-29 23 Feb 09:07:45 09:11:57 17° 61° (ENE) 09:16:21 435.910
O/OREOS (USA 219) 23 Feb 09:08:38 09:12:42 31° 67° (ENE) 09:16:45 437.305
DELFI C3 23 Feb 09:21:57 09:24:52 20° 96° (E) 09:27:46 145.870
UNISAT 6 23 Feb 09:30:17 09:34:24 40° 74° (ENE) 09:38:38 437.425
TIGRISAT 23 Feb 09:31:25 09:35:29 37° 73° (ENE) 09:39:40 435.000
CUBEBUG 2 23 Feb 09:31:32 09:35:06 21° 289° (WNW) 09:38:38 437.445
ISS 23 Feb 09:43:08 09:44:16 11° 326° (NW) 09:45:23 437.550
AO-73 23 Feb 09:54:06 09:58:11 34° 287° (WNW) 10:02:12 145.935
SO-50 23 Feb 10:00:37 10:01:29 10° 253° (WSW) 10:02:21 436.795
Oscar 11 23 Feb 10:04:07 10:07:50 28° 287° (WNW) 10:11:32 .
PRISM 23 Feb 10:06:01 10:09:12 22° 263° (W) 10:12:22 437.425
UWE-3 23 Feb 10:16:09 10:17:28 11° 293° (WNW) 10:18:47 435.000/436.395/437.385
YUBILEINY 23 Feb 10:20:59 10:29:19 48° 89° (E) 10:37:37 435.215
O/OREOS (USA 219) 23 Feb 10:48:45 10:51:48 18° 260° (W) 10:54:51 437.305
FO-29 23 Feb 10:49:12 10:55:54 76° 258° (WSW) 11:03:27 435.910
DUCHIFAT 1 23 Feb 10:52:40 10:55:47 20° 71° (ENE) 10:58:54 145.980
DELFI C3 23 Feb 10:56:38 10:59:30 20° 288° (WNW) 11:02:22 145.870
EO-79 23 Feb 10:59:58 11:03:40 31° 73° (ENE) 11:07:23 145.935-145.965
AIST 2D 23 Feb 11:00:11 11:03:38 53° 77° (ENE) 11:07:07 435.315
UNISAT 6 23 Feb 11:09:09 11:11:14 13° 267° (W) 11:13:20 437.425
TIGRISAT 23 Feb 11:09:59 11:12:16 14° 266° (W) 11:14:35 435.000
POLYITAN 1 23 Feb 11:16:17 11:20:21 51° 75° (ENE) 11:24:29 437.675
NANOSAT C BR1 23 Feb 11:18:06 11:22:08 48° 75° (ENE) 11:26:13 145.865
QB50P2 23 Feb 11:19:04 11:23:13 61° 76° (ENE) 11:27:25 145.880/145.840
ESTCUBE 1 23 Feb 11:40:02 11:44:26 57° 101° (E) 11:48:49 437.505/2401.250
BUGSAT 1 23 Feb 11:58:35 12:02:21 41° 74° (ENE) 12:06:11 437.445
VELOX 1 23 Feb 12:15:41 12:19:54 43° 100° (E) 12:24:05 145.980
DX 1 23 Feb 12:16:12 12:18:59 17° 96° (E) 12:21:46 434.975-435.025
YUBILEINY 23 Feb 12:18:50 12:26:12 29° 285° (WNW) 12:33:36 435.215
DUCHIFAT 1 23 Feb 12:27:57 12:31:16 23° 263° (W) 12:34:36 145.980
UKube-1 23 Feb 12:32:50 12:35:48 18° 96° (E) 12:38:46 .
EO-79 23 Feb 12:37:01 12:39:26 15° 265° (W) 12:41:51 145.935-145.965
SPROUT 23 Feb 12:41:05 12:45:24 74° 102° (ESE) 12:49:41 437.525
Oscar 19 23 Feb 12:48:19 12:53:10 43° 73° (ENE) 12:58:01 437.125/150
50 SAT 23 Feb 12:59:58 13:03:23 61° 283° (WNW) 13:06:48 437.505
Gurwin Techsat 1B 23 Feb 13:14:53 13:19:51 42° 73° (ENE) 13:24:50 435.225
DX 1 23 Feb 13:51:20 13:55:08 30° 288° (WNW) 13:58:56 434.975-435.025
VELOX 1 23 Feb 13:54:01 13:55:55 13° 292° (WNW) 13:57:48 145.980
AO-85 23 Feb 14:00:03 14:03:31 29° 59° (ENE) 14:07:04 145.980
UKube-1 23 Feb 14:08:07 14:11:45 27° 288° (WNW) 14:15:24 .
Oscar 19 23 Feb 14:29:25 14:32:35 16° 265° (W) 14:35:45 437.125/150
AO-7 23 Feb 14:48:21 14:56:26 56° 69° (ENE) 15:04:32 .
ITUPSAT 1 23 Feb 14:53:47 14:58:23 45° 100° (E) 15:02:57 437.325
ITAMSAT 1 23 Feb 14:55:54 15:01:03 74° 76° (ENE) 15:06:16 435.822/435.867
Gurwin Techsat 1B 23 Feb 14:56:26 14:59:52 17° 265° (W) 15:03:20 435.225
BEESAT 23 Feb 15:01:47 15:06:30 58° 101° (E) 15:11:11 436.000
Tancredo 1 23 Feb 15:09:40 15:10:27 11° 34° (NNE) 15:11:12 437.200
PCSat 23 Feb 15:14:20 15:16:22 12° 103° (ESE) 15:18:24 145.827
AO-85 23 Feb 15:41:24 15:43:37 15° 250° (WSW) 15:45:53 145.980
MOZHAYETS 4 23 Feb 15:42:02 15:46:32 54° 100° (E) 15:51:00
ISS 23 Feb 16:13:03 16:16:13 46° 44° (NE) 16:19:22 437.550
BEESAT 3 23 Feb 16:28:07 16:32:08 75° 64° (ENE) 16:36:05 437.485
KKS-1 23 Feb 16:28:37 16:32:51 41° 100° (E) 16:37:04 437.445
ITUPSAT 1 23 Feb 16:33:16 16:35:46 14° 293° (WNW) 16:38:14 437.325
CUBESAT XI-V 23 Feb 16:35:58 16:39:57 29° 97° (E) 16:43:55 437.345
BEESAT 23 Feb 16:42:24 16:43:42 11° 294° (WNW) 16:45:01 436.000
AO-7 23 Feb 16:42:49 16:49:23 25° 262° (W) 16:56:00 .
Tancredo 1 23 Feb 16:43:50 16:47:00 61° 229° (SW) 16:50:08 437.200
M-CUBED/EXP-1 PRIME 23 Feb 16:45:15 16:46:33 11° 101° (E) 16:47:52 437.505
PCSat 23 Feb 16:53:48 16:59:08 62° 296° (WNW) 17:04:31 145.827
RS-15 23 Feb 16:57:50 17:08:55 51° 108° (ESE) 17:20:27 29.354- 29.394
XW-2F 23 Feb 17:00:36 17:01:51 11° 69° (ENE) 17:03:06 145.980 - 146.000
BEESAT 2 23 Feb 17:01:38 17:05:40 69° 62° (ENE) 17:09:39 435.950
XW-2D 23 Feb 17:03:14 17:05:09 13° 70° (ENE) 17:07:03 145.860 - 145.880
XW-2B 23 Feb 17:07:53 17:10:07 15° 71° (ENE) 17:12:20 145.730 - 145.750
STARS 23 Feb 17:08:31 17:12:50 51° 101° (E) 17:17:08 437.465
XW-2C 23 Feb 17:15:49 17:18:36 19° 72° (ENE) 17:21:24 145.795 - 145.815
MOZHAYETS 4 23 Feb 17:22:06 17:23:08 11° 293° (WNW) 17:24:11
DOVE 4 23 Feb 17:26:13 17:29:52 30° 74° (ENE) 17:33:30 437.250
CUTE-I 23 Feb 17:28:35 17:33:20 34° 71° (ENE) 17:38:05 437.470
LilacSat-2 23 Feb 17:29:41 17:33:07 31° 74° (ENE) 17:36:34 437.200
NUDT-PHONESAT 23 Feb 17:34:44 17:37:55 27° 74° (ENE) 17:41:08 437.300
HO-68 23 Feb 17:43:04 17:45:53 13° 60° (ENE) 17:48:41 435.675
KKS-1 23 Feb 18:06:49 18:09:00 14° 292° (WNW) 18:11:11 437.445
CUBESAT XI-V 23 Feb 18:13:49 18:17:05 20° 290° (WNW) 18:20:20 437.345
M-CUBED/EXP-1 PRIME 23 Feb 18:17:22 18:20:58 39° 289° (WNW) 18:24:49 437.505
KAITUO 1B 23 Feb 18:30:37 18:34:14 43° 261° (W) 18:37:53 145.475/437.950
XW-2F 23 Feb 18:32:08 18:35:36 34° 262° (W) 18:39:08 145.980 - 146.000
XW-2D 23 Feb 18:35:41 18:39:01 29° 262° (W) 18:42:23 145.860 - 145.880
XW-2B 23 Feb 18:40:49 18:44:02 25° 263° (W) 18:47:16 145.730 - 145.750
STARS 23 Feb 18:47:37 18:48:40 11° 293° (WNW) 18:49:43 437.465
CUBEBUG 2 23 Feb 18:49:09 18:50:28 11° 67° (ENE) 18:51:46 437.445
CUTE 1.7 + AOD 2 23 Feb 18:49:16 18:52:56 28° 73° (ENE) 18:56:36 437.475
XW-2C 23 Feb 18:49:49 18:52:38 19° 264° (W) 18:55:28 145.795 - 145.815
DOVE 4 23 Feb 19:05:25 19:07:36 14° 265° (W) 19:09:46 437.250
LilacSat-2 23 Feb 19:05:52 19:07:25 12° 266° (W) 19:08:58 437.200
CUTE-I 23 Feb 19:09:16 19:13:20 22° 264° (W) 19:17:26 437.470
NUDT-PHONESAT 23 Feb 19:10:02 19:11:50 13° 266° (W) 19:13:39 437.300
RS-15 23 Feb 19:10:28 19:21:28 42° 307° (NW) 19:32:58 29.354- 29.394
XW-2A 23 Feb 19:19:13 19:22:31 59° 259° (W) 19:25:53 145.665 - 145.685
HO-68 23 Feb 19:25:22 19:32:34 88° 75° (ENE) 19:39:47 435.675
STRAND 1 23 Feb 19:26:13 19:31:10 47° 100° (E) 19:36:05 437.568
UWE-3 23 Feb 19:28:38 19:31:55 21° 70° (ENE) 19:35:15 435.000/436.395/437.385
AAUSAT CUBESAT 2 23 Feb 19:45:16 19:49:09 39° 75° (ENE) 19:53:02 437.432
SEEDS 23 Feb 19:49:43 19:53:57 76° 260° (W) 19:58:12 437.485
ZACube-1 23 Feb 19:53:56 19:57:25 23° 71° (ENE) 20:00:59 437.345
JUGNU 23 Feb 20:03:31 20:05:48 12° 161° (SSE) 20:08:06 437.505
CUBEBUG 2 23 Feb 20:22:21 20:26:32 48° 261° (W) 20:30:52 437.445
CUTE 1.7 + AOD 2 23 Feb 20:25:52 20:28:43 17° 265° (W) 20:31:32 437.475
YUBILEINY 23 Feb 20:40:54 20:45:52 16° 70° (ENE) 20:50:48 435.215
AO-73 23 Feb 20:42:31 20:46:53 86° 79° (E) 20:51:24 145.935
Oscar 11 23 Feb 20:51:50 20:56:11 84° 256° (WSW) 21:00:34 .
UWE-3 23 Feb 21:04:32 21:08:09 25° 264° (W) 21:11:52 435.000/436.395/437.385
STRAND 1 23 Feb 21:06:54 21:09:53 16° 293° (WNW) 21:12:53 437.568
HO-68 23 Feb 21:18:48 21:20:52 11° 267° (W) 21:22:57 435.675
AAUSAT CUBESAT 2 23 Feb 21:23:27 21:24:42 11° 266° (W) 21:25:58 437.432
UNISAT 6 23 Feb 21:29:16 21:31:51 15° 94° (E) 21:34:26 437.425
ZACube-1 23 Feb 21:30:07 21:33:33 22° 264° (W) 21:37:04 437.345
TIGRISAT 23 Feb 21:30:22 21:32:45 14° 94° (E) 21:35:06 435.000
DELFI C3 23 Feb 21:34:48 21:38:47 85° 259° (W) 21:42:45 145.870
RS-15 23 Feb 21:35:33 21:38:44 11° 337° (NNW) 21:41:55 29.354- 29.394
JUGNU 23 Feb 21:49:36 21:54:14 24° 169° (S) 21:58:53 437.505
PRISM 23 Feb 21:52:04 21:56:09 77° 101° (E) 22:00:14 437.425
FO-29 23 Feb 22:07:16 22:13:03 24° 93° (E) 22:18:22 435.910
SO-50 23 Feb 22:25:04 22:29:46 73° 115° (ESE) 22:34:24 436.795
ESTCUBE 1 23 Feb 22:33:59 22:37:40 25° 72° (ENE) 22:41:21 437.505/2401.250
YUBILEINY 23 Feb 22:34:44 22:43:27 79° 267° (W) 22:52:07 435.215
SRMSAT 23 Feb 22:46:53 22:49:49 14° 162° (SSE) 22:52:46 437.500
UNISAT 6 23 Feb 23:04:16 23:08:39 39° 286° (WNW) 23:12:57 437.425
TIGRISAT 23 Feb 23:05:07 23:09:32 42° 286° (WNW) 23:13:53 435.000
VELOX 1 23 Feb 23:07:59 23:10:59 18° 70° (ENE) 23:14:00 145.980
POLYITAN 1 23 Feb 23:08:37 23:10:50 14° 94° (E) 23:13:03 437.675
NANOSAT C BR1 23 Feb 23:10:06 23:12:02 13° 94° (E) 23:13:58 145.865
QB50P2 23 Feb 23:11:04 23:13:46 16° 95° (E) 23:16:27 145.880/145.840
O/OREOS (USA 219) 23 Feb 23:14:21 23:18:47 72° 287° (WNW) 23:23:17 437.305
SPROUT 23 Feb 23:28:58 23:32:25 25° 72° (ENE) 23:35:53 437.525
50 SAT 23 Feb 23:29:04 23:31:27 17° 72° (ENE) 23:33:50 437.505
